Location: Le Hiès Ruisseau
(43.3000°N, 0.4500°W)
Time: 13:09:57
(UTC+00:00)

BREEZE-M DEB (TANK) - Pass Details

Date: 28 January 2023
Orbit: 349 x 16291 km, 49.4° (Epoch: 18 March)

Event Time Altitude Azimuth Distance (km) Brightness Sun altitude
Rises 19:17:30 0° 297° (WNW) 4,036 7.7 -23.6°
Reaches altitude 10° 19:21:35 10° 283° (WNW) 2,072 6.2 -24.3°
Maximum altitude 19:24:35 21° 231° (SW) 1,029 4.2 -24.9°
Enters shadow 19:25:03 20° 216° (SW) 1,008 4.0 -25.0°
